Flag for U.S.A. Weather past 2 weeks in Cambridge, Massachusetts, U.S.A.

Now
37 °F

Light rain. Overcast.


Feels Like: 28 °F
Forecast: 34 / 43 °F
Wind: 15 mph from West

Location: Logan International Airport

Current Time: Dec 18, 2014 at 6:32:07 AM

Latest Report: Dec 18, 2014 at 5:54 AM


Visibility: 10 mi

Pressure: 29.73 "Hg

Humidity: 82%

Dew point: 32 °F

Location of CambridgeLocation

Historic Weather in Cambridge — Graph

°F

Cambridge temperature yesterday

Maximum temperature yesterday: 48 °F (at 3:54 PM)
Minimum temperature yesterday: 41 °F (at 11:54 PM)
Average temperature yesterday: 45 °F

Past Weeks' High & Low Weather Summary

 TemperatureHumidityPressure
High51 °F (Dec 3, 2:54 PM)100% (Dec 3, 4:54 AM)30.76 "Hg (Dec 3, 4:54 AM)
Low18 °F (Dec 8, 5:54 AM)28% (Dec 7, 7:54 PM)29.43 "Hg (Dec 10, 9:54 PM)
Average37 °F77%30.05 "Hg
* Reported Dec 3 4:54 AM — Dec 18 4:54 AM, Cambridge, Weather by CustomWeather, © 2014

Note: Actual official high and low records may vary slightly from our data, if they occured in-between our weather recording intervals... More about our weather records

Advertising

Cambridge weather history for previous 24 hours

 ConditionsComfort  
Time TempWeatherWind HumidityBarometerVisibility
4:54 AM
Dec 18
39 °FMostly cloudy.14 mph73%29.72 "Hg10 mi
3:54 AM40 °FMostly cloudy.13 mph68%29.71 "Hg10 mi
2:54 AM40 °FMostly cloudy.16 mph70%29.72 "Hg10 mi
1:54 AM40 °FMostly cloudy.14 mph70%29.72 "Hg10 mi
12:54 AM40 °FOvercast.15 mph73%29.71 "Hg10 mi
11:54 PM
Dec 17
41 °FPartly cloudy.16 mph70%29.71 "Hg10 mi
10:54 PM42 °FMostly cloudy.14 mph73%29.72 "Hg10 mi
9:54 PM43 °FMostly cloudy.20 mph76%29.73 "Hg10 mi
8:54 PM44 °FOvercast.15 mph73%29.72 "Hg10 mi
7:54 PM45 °FMostly cloudy.14 mph76%29.73 "Hg10 mi
5:54 PM47 °FPassing clouds.14 mph74%29.72 "Hg10 mi
4:54 PM48 °FPassing clouds.16 mph74%29.71 "Hg10 mi
3:54 PM48 °FScattered clouds.7 mph80%29.69 "Hg10 mi
3:04 PM46 °FBroken clouds.9 mph87%29.69 "Hg10 mi
2:54 PM47 °FPartly sunny.8 mph83%29.69 "Hg10 mi
1:54 PM46 °FMostly cloudy.12 mph86%29.69 "Hg10 mi
12:54 PM45 °FMostly cloudy.10 mph90%29.69 "Hg10 mi
11:54 AM43 °FLow clouds.13 mph89%29.70 "Hg10 mi
10:54 AM42 °FFog.14 mph96%29.72 "Hg1 mi
9:54 AM43 °FLow clouds.13 mph93%29.74 "Hg10 mi
8:54 AM43 °FLight rain. Fog.10 mph97%29.73 "Hg2 mi
7:54 AM43 °FFog.8 mph97%29.73 "Hg2 mi
6:54 AM44 °FHeavy rain. Fog.9 mph96%29.74 "Hg2 mi
6:01 AM45 °FLight rain. Overcast.14 mph93%29.75 "Hg3 mi
Weather by CustomWeather, © 2014

See weather overviewHow to use our weather pages